Regional Weather Roundup
Issued by NWS State College, PA

Home | Current Version | Previous Version | Graphics & Text | Print | Product List | Glossary On
Versions: 1 2 3 4 5 6 7 8 9 10 11 12 13 14 15 16 17 18 19 20 21 22 23 24 25 26 27 28 29 30 31 32 33 34 35 36 37 38 39 40 41 42 43 44 45 46 47 48 49 50
000
ASUS41 KCTP 270903
RWRCTP

REGIONAL WEATHER ROUNDUP
NATIONAL WEATHER SERVICE STATE COLLEGE PA
400 AM EST TUE JAN 27 2015

Note: "fair" indicates few or no clouds below 12,000 feet with no
significant weather and/or obstructions to visibility.

* = STATION THAT DOES NOT REPORT PRECIPITATION /E.G. RAIN...SNOW...ETC/
    THUNDER OR FOG.

PAZ002>004-007>009-013>016-020>023-029>032-271000-
WESTERN PENNSYLVANIA

CITY           SKY/WX    TMP DP  RH WIND       PRES   REMARKS
ERIE           CLOUDY    20  14  77 NE12      29.90S WCI   8
MEADVILLE      CLOUDY    17  13  84 N7        29.82S WCI   8
FRANKLIN*      CLOUDY    16  12  86 N5        29.82S WCI   9
NEW CASTLE     FLURRIES  18  14  84 NW10      29.87S WCI   6
BEAVER COUNTY  NOT AVBL
BUTLER*        CLOUDY    19  16  86 W6        29.85R WCI  11
PITTSBURGH INT LGT SNOW  19  16  88 NW8       29.84S FOG     WCI   9
PITTSBURGH     CLOUDY    19  14  81 W8        29.83R WCI   9
INDIANA*       CLOUDY    19  18  93 W6        29.83S FOG     WCI  11
LATROBE        CLOUDY    19  19 100 NW7       29.85R WCI  10
WASHINGTON CO* CLOUDY    19  16  86 CALM      29.86S
$$

PAZ004>006-010>012-017>019-024>028-033>037-041-042-045-046-049>053-271000-
CENTRAL PENNSYLVANIA

CITY           SKY/WX    TMP DP  RH WIND       PRES   REMARKS
BRADFORD       CLOUDY    12   7  80 N7        29.74S WCI   1
DUBOIS         CLOUDY    15  12  88 NW5       29.75S WCI   8
CLEARFIELD     LGT SNOW  18  14  84 NW5       29.77R FOG     WCI  11
JOHNSTOWN      CLOUDY    16  13  88 W13       29.71S WCI   2
ALTOONA        CLOUDY    21  17  84 N9        29.75S WCI  11
STATE COLLEGE  LGT SNOW  20  18  91 CALM      29.77R
WILLIAMSPORT   FLURRIES  22  13  68 NW6       29.81F WCI  14
SELINSGROVE    FLURRIES  25  19  78 N12       29.80S WCI  14
FT INDIANTOWN  MOCLDY    26  19  74 N16G23    29.72F WCI  13
CAPITAL CITY   FLURRIES  27  21  78 N6        29.76F
HARRISBURG     FLURRIES  26  21  81 NW12      29.75F
YORK           FLURRIES  25  21  85 NW7       29.74F
$$

PAZ038>040-043-044-047-048-054-055-060>062-067>071-271000-
EASTERN PENNSYLVANIA

CITY           SKY/WX    TMP DP  RH WIND       PRES   REMARKS
SCRANTON       CLOUDY    21  13  71 N9G18     29.73F WCI  11
MOUNT POCONO   CLOUDY    18  14  84 N10       29.62S WCI   6
ALLENTOWN      CLOUDY    26  16  65 NE3       29.71F
QUAKERTOWN*    NOT AVBL
READING        CLOUDY    27  18  69 N12       29.72S
LANCASTER      CLOUDY    26  18  71 NW8       29.72F
COATESVILLE    FLURRIES  27  21  80 N8        29.69S
POTTSTOWN      CLOUDY    26  16  65 N6G16     29.72S
BLUE BELL      CLOUDY    27  23  86 N5        29.70S
DOYLESTOWN     LGT SNOW  22  20  92 N13G18    29.69S FOG     WCI  10
WILLOW GROVE   NOT AVBL
NORTH PHILA    LGT SNOW  26  18  71 N13       29.71F WCI  15
PHILADELPHIA   LGT SNOW  26  21  81 N10G21    29.71F
$$



USA.gov is the U.S. government's official web portal to all federal, state and local government web resources and services.